LNI989 WIOO-WIDD

Flight info

Callsign LNI989
Flight time 0h 56m
Altitude 34000
Route BAVUS L504 OBDOS T22 UGEBO
Aircraft B738/M-SDE2E3FGHIRWXY/LB1

Departure

Time 2026-05-07 10:31
Airport Supadio International Airport (WIOO)

Arrival

Time 2026-05-07 11:27
Airport Hang Nadim International Airport (WIDD)
Time Latitude Longitude Altitude Speed Heading
2026-05-07 10:05 -0.14710 109.40382 14 ft 0 kts 68°
2026-05-07 10:21 -0.14715 109.40372 14 ft 2 kts 54°
2026-05-07 10:21 -0.14725 109.40362 14 ft 2 kts 33°
2026-05-07 10:21 -0.14739 109.40356 14 ft 2 kts 12°
2026-05-07 10:21 -0.14754 109.40355 14 ft 2 kts 352°
2026-05-07 10:22 -0.14763 109.40356 14 ft 0 kts 339°
2026-05-07 10:22 -0.14769 109.40359 14 ft 0 kts 337°
2026-05-07 10:25 -0.14767 109.40358 14 ft 2 kts 336°
2026-05-07 10:25 -0.14734 109.40345 14 ft 7 kts 338°
2026-05-07 10:25 -0.14688 109.40327 13 ft 6 kts 338°
2026-05-07 10:26 -0.14642 109.40308 13 ft 7 kts 338°
2026-05-07 10:26 -0.14596 109.40290 13 ft 6 kts 338°
2026-05-07 10:26 -0.14551 109.40272 12 ft 6 kts 338°
2026-05-07 10:26 -0.14507 109.40255 12 ft 6 kts 338°
2026-05-07 10:27 -0.14461 109.40237 12 ft 7 kts 339°
2026-05-07 10:27 -0.14419 109.40210 11 ft 7 kts 283°
2026-05-07 10:27 -0.14432 109.40158 10 ft 7 kts 249°
2026-05-07 10:27 -0.14411 109.40119 10 ft 8 kts 335°
2026-05-07 10:28 -0.14347 109.40093 10 ft 12 kts 339°
2026-05-07 10:28 -0.14264 109.40060 10 ft 12 kts 336°
2026-05-07 10:28 -0.14196 109.40012 10 ft 11 kts 317°
2026-05-07 10:28 -0.14159 109.39997 10 ft 3 kts 30°
2026-05-07 10:29 -0.14154 109.40014 10 ft 2 kts 114°
2026-05-07 10:29 -0.14165 109.40020 10 ft 1 kts 169°
2026-05-07 10:29 -0.14178 109.40024 10 ft 0 kts 160°
2026-05-07 10:30 -0.14232 109.40045 10 ft 29 kts 158°
2026-05-07 10:30 -0.14664 109.40221 12 ft 103 kts 158°
2026-05-07 10:30 -0.15537 109.40575 12 ft 164 kts 158°
2026-05-07 10:30 -0.16647 109.41021 532 ft 176 kts 158°
2026-05-07 10:31 -0.17799 109.41476 1275 ft 180 kts 159°
2026-05-07 10:31 -0.19000 109.41825 2011 ft 182 kts 173°
2026-05-07 10:31 -0.20278 109.41719 2565 ft 196 kts 199°
2026-05-07 10:31 -0.21439 109.40923 3029 ft 218 kts 232°
2026-05-07 10:32 -0.21954 109.39436 3571 ft 238 kts 270°
2026-05-07 10:32 -0.21780 109.37753 4220 ft 253 kts 277°
2026-05-07 10:32 -0.21658 109.35936 4847 ft 270 kts 269°
2026-05-07 10:32 -0.21769 109.34041 5600 ft 280 kts 264°
2026-05-07 10:33 -0.22000 109.32116 6444 ft 286 kts 262°
2026-05-07 10:33 -0.22265 109.30145 7302 ft 291 kts 262°
2026-05-07 10:33 -0.22528 109.28158 8177 ft 293 kts 263°
2026-05-07 10:33 -0.22783 109.26116 9011 ft 298 kts 263°
2026-05-07 10:34 -0.23028 109.24068 9619 ft 304 kts 264°
2026-05-07 10:34 -0.23277 109.21931 10173 ft 313 kts 264°
2026-05-07 10:34 -0.23530 109.19747 10736 ft 326 kts 264°
2026-05-07 10:34 -0.23797 109.17416 11173 ft 343 kts 264°
2026-05-07 10:35 -0.23890 109.15010 11593 ft 357 kts 274°
2026-05-07 10:35 -0.23339 109.12575 12134 ft 366 kts 291°
2026-05-07 10:35 -0.22348 109.10220 12773 ft 372 kts 295°
2026-05-07 10:35 -0.21232 109.07855 13486 ft 376 kts 296°
2026-05-07 10:36 -0.20109 109.05507 14149 ft 381 kts 296°
2026-05-07 10:36 -0.18988 109.03119 14821 ft 385 kts 296°
2026-05-07 10:36 -0.17872 109.00684 15518 ft 388 kts 295°
2026-05-07 10:36 -0.16770 108.98238 16163 ft 392 kts 295°
2026-05-07 10:37 -0.15653 108.95727 16802 ft 396 kts 295°
2026-05-07 10:37 -0.14533 108.93198 17433 ft 399 kts 295°
2026-05-07 10:37 -0.13413 108.90659 18004 ft 404 kts 295°
2026-05-07 10:37 -0.12317 108.88049 18556 ft 409 kts 292°
2026-05-07 10:38 -0.11386 108.85376 19073 ft 415 kts 289°
2026-05-07 10:38 -0.10539 108.82602 19619 ft 419 kts 288°
2026-05-07 10:38 -0.09721 108.79767 20155 ft 423 kts 287°
2026-05-07 10:38 -0.08916 108.76936 20686 ft 427 kts 287°
2026-05-07 10:39 -0.08092 108.74059 21204 ft 431 kts 287°
2026-05-07 10:39 -0.07257 108.71178 21662 ft 435 kts 288°
2026-05-07 10:39 -0.06412 108.68301 22156 ft 439 kts 288°
2026-05-07 10:39 -0.05541 108.65356 22655 ft 442 kts 288°
2026-05-07 10:40 -0.04674 108.62440 23146 ft 445 kts 288°
2026-05-07 10:40 -0.03786 108.59466 23642 ft 448 kts 288°
2026-05-07 10:40 -0.02890 108.56470 24136 ft 450 kts 288°
2026-05-07 10:40 -0.01980 108.53433 24617 ft 453 kts 288°
2026-05-07 10:41 -0.01081 108.50435 25066 ft 456 kts 288°
2026-05-07 10:41 -0.00170 108.47397 25540 ft 458 kts 288°
2026-05-07 10:41 0.00749 108.44329 25995 ft 461 kts 288°
2026-05-07 10:41 0.01665 108.41273 26418 ft 464 kts 288°
2026-05-07 10:42 0.02601 108.38148 26874 ft 466 kts 288°
2026-05-07 10:42 0.03522 108.35074 27291 ft 469 kts 288°
2026-05-07 10:42 0.04485 108.31926 27695 ft 471 kts 288°
2026-05-07 10:42 0.05429 108.28807 28104 ft 473 kts 288°
2026-05-07 10:43 0.06379 108.25639 28508 ft 476 kts 288°
2026-05-07 10:43 0.07324 108.22471 28882 ft 479 kts 288°
2026-05-07 10:43 0.08272 108.19289 29233 ft 482 kts 288°
2026-05-07 10:43 0.09220 108.16109 29838 ft 479 kts 287°
2026-05-07 10:44 0.10165 108.12937 30503 ft 474 kts 287°
2026-05-07 10:44 0.11110 108.09772 30990 ft 474 kts 287°
2026-05-07 10:44 0.12041 108.06657 31488 ft 472 kts 287°
2026-05-07 10:44 0.12986 108.03499 31984 ft 471 kts 287°
2026-05-07 10:45 0.13914 108.00398 32441 ft 470 kts 287°
2026-05-07 10:45 0.14857 107.97247 32944 ft 469 kts 287°
2026-05-07 10:45 0.15789 107.94140 33460 ft 468 kts 287°
2026-05-07 10:45 0.16715 107.91035 33791 ft 469 kts 286°
2026-05-07 10:46 0.18416 107.84727 33782 ft 468 kts 284°
2026-05-07 10:46 0.19985 107.78450 33787 ft 466 kts 284°
2026-05-07 10:47 0.21546 107.72179 33797 ft 467 kts 284°
2026-05-07 10:47 0.23134 107.65878 33802 ft 467 kts 284°
2026-05-07 10:48 0.24728 107.59610 33802 ft 466 kts 284°
2026-05-07 10:48 0.26328 107.53348 33801 ft 466 kts 284°
2026-05-07 10:49 0.27932 107.47085 33802 ft 466 kts 284°
2026-05-07 10:49 0.29540 107.40814 33802 ft 466 kts 284°
2026-05-07 10:50 0.31151 107.34528 33802 ft 467 kts 284°
2026-05-07 10:50 0.32760 107.28249 33802 ft 466 kts 284°
2026-05-07 10:51 0.34374 107.21952 33802 ft 466 kts 284°
2026-05-07 10:51 0.35972 107.15714 33802 ft 465 kts 284°
2026-05-07 10:52 0.37580 107.09439 33801 ft 465 kts 284°
2026-05-07 10:52 0.39182 107.03185 33801 ft 466 kts 284°
2026-05-07 10:53 0.40788 106.96914 33801 ft 467 kts 284°
2026-05-07 10:53 0.42279 106.90577 33799 ft 467 kts 280°
2026-05-07 10:54 0.43268 106.84206 33795 ft 468 kts 277°
2026-05-07 10:54 0.44110 106.77763 33792 ft 467 kts 277°
2026-05-07 10:55 0.44959 106.71346 33790 ft 466 kts 277°
2026-05-07 10:55 0.45397 106.68141 33568 ft 464 kts 277°
2026-05-07 10:55 0.45839 106.64970 33275 ft 457 kts 278°
2026-05-07 10:56 0.46280 106.61843 32985 ft 453 kts 278°
2026-05-07 10:56 0.46719 106.58758 32705 ft 457 kts 278°
2026-05-07 10:56 0.47169 106.55613 32425 ft 460 kts 278°
2026-05-07 10:56 0.47631 106.52401 32168 ft 462 kts 278°
2026-05-07 10:57 0.48086 106.49249 31915 ft 463 kts 278°
2026-05-07 10:57 0.48546 106.46058 31781 ft 460 kts 278°
2026-05-07 10:57 0.49460 106.39730 31781 ft 465 kts 278°
2026-05-07 10:58 0.50382 106.33333 31780 ft 463 kts 278°
2026-05-07 10:58 0.51295 106.27003 31785 ft 463 kts 278°
2026-05-07 10:59 0.52212 106.20646 31789 ft 464 kts 278°
2026-05-07 10:59 0.53127 106.14300 31793 ft 464 kts 278°
2026-05-07 11:00 0.54048 106.07909 31799 ft 462 kts 278°
2026-05-07 11:00 0.54873 106.01548 31802 ft 464 kts 275°
2026-05-07 11:01 0.55187 105.95138 31802 ft 464 kts 272°
2026-05-07 11:01 0.55327 105.88723 31802 ft 463 kts 271°
2026-05-07 11:02 0.55488 105.82295 31802 ft 462 kts 272°
2026-05-07 11:02 0.55694 105.75869 31802 ft 463 kts 272°
2026-05-07 11:03 0.55809 105.72664 31646 ft 466 kts 272°
2026-05-07 11:03 0.55930 105.69418 31388 ft 465 kts 272°
2026-05-07 11:03 0.56052 105.66221 31134 ft 463 kts 272°
2026-05-07 11:03 0.56176 105.63031 30881 ft 461 kts 272°
2026-05-07 11:04 0.56301 105.59829 30624 ft 459 kts 272°
2026-05-07 11:04 0.56426 105.56640 30368 ft 457 kts 272°
2026-05-07 11:04 0.56550 105.53494 30116 ft 456 kts 272°
2026-05-07 11:04 0.56675 105.50324 29862 ft 456 kts 272°
2026-05-07 11:05 0.56798 105.47184 29608 ft 454 kts 272°
2026-05-07 11:05 0.56922 105.44049 29354 ft 452 kts 272°
2026-05-07 11:05 0.57046 105.40917 29100 ft 450 kts 272°
2026-05-07 11:05 0.57168 105.37812 28848 ft 448 kts 272°
2026-05-07 11:06 0.57291 105.34705 28595 ft 447 kts 272°
2026-05-07 11:06 0.57413 105.31594 28344 ft 445 kts 272°
2026-05-07 11:06 0.57535 105.28517 28103 ft 444 kts 272°
2026-05-07 11:06 0.57656 105.25451 27860 ft 442 kts 272°
2026-05-07 11:07 0.57777 105.22394 27619 ft 441 kts 272°
2026-05-07 11:07 0.57898 105.19324 27373 ft 439 kts 272°
2026-05-07 11:07 0.58018 105.16286 27132 ft 438 kts 272°
2026-05-07 11:07 0.58138 105.13245 26889 ft 437 kts 272°
2026-05-07 11:08 0.58256 105.10236 26647 ft 434 kts 272°
2026-05-07 11:08 0.58374 105.07244 26409 ft 433 kts 272°
2026-05-07 11:08 0.58491 105.04263 26167 ft 430 kts 272°
2026-05-07 11:08 0.58608 105.01257 25924 ft 429 kts 273°
2026-05-07 11:09 0.58722 104.98322 25594 ft 426 kts 273°
2026-05-07 11:09 0.58837 104.95386 25116 ft 423 kts 273°
2026-05-07 11:09 0.58951 104.92457 24568 ft 422 kts 273°
2026-05-07 11:09 0.59065 104.89526 24006 ft 421 kts 273°
2026-05-07 11:10 0.59179 104.86617 23445 ft 419 kts 273°
2026-05-07 11:10 0.59293 104.83722 22878 ft 419 kts 273°
2026-05-07 11:10 0.59407 104.80801 22309 ft 418 kts 273°
2026-05-07 11:10 0.59433 104.77949 21756 ft 418 kts 269°
2026-05-07 11:11 0.59300 104.75046 21201 ft 417 kts 267°
2026-05-07 11:11 0.59087 104.72147 20628 ft 417 kts 266°
2026-05-07 11:11 0.58847 104.69270 20055 ft 416 kts 266°
2026-05-07 11:11 0.58605 104.66421 19471 ft 414 kts 266°
2026-05-07 11:12 0.58373 104.63600 18907 ft 401 kts 266°
2026-05-07 11:12 0.58156 104.60867 18377 ft 388 kts 266°
2026-05-07 11:12 0.57952 104.58227 17841 ft 377 kts 266°
2026-05-07 11:12 0.57760 104.55653 17311 ft 366 kts 266°
2026-05-07 11:13 0.57578 104.53130 16800 ft 369 kts 266°
2026-05-07 11:13 0.57398 104.50581 16243 ft 369 kts 267°
2026-05-07 11:13 0.57222 104.48054 15734 ft 360 kts 267°
2026-05-07 11:13 0.57049 104.45568 15199 ft 361 kts 267°
2026-05-07 11:14 0.56876 104.43070 14681 ft 360 kts 266°
2026-05-07 11:14 0.56702 104.40575 14192 ft 359 kts 266°
2026-05-07 11:14 0.56530 104.38108 13683 ft 359 kts 266°
2026-05-07 11:14 0.56355 104.35609 13168 ft 358 kts 266°
2026-05-07 11:15 0.56185 104.33161 12672 ft 357 kts 266°
2026-05-07 11:15 0.56013 104.30701 12246 ft 353 kts 266°
2026-05-07 11:15 0.55842 104.28254 11837 ft 349 kts 266°
2026-05-07 11:15 0.55674 104.25865 11352 ft 348 kts 266°
2026-05-07 11:16 0.55506 104.23452 10815 ft 348 kts 267°
2026-05-07 11:16 0.55487 104.21036 10391 ft 343 kts 276°
2026-05-07 11:16 0.56010 104.18783 10207 ft 328 kts 296°
2026-05-07 11:16 0.57358 104.17013 10098 ft 310 kts 321°
2026-05-07 11:17 0.59184 104.15952 9786 ft 303 kts 342°
2026-05-07 11:17 0.61240 104.15458 9386 ft 300 kts 351°
2026-05-07 11:17 0.63296 104.15090 9002 ft 298 kts 351°
2026-05-07 11:17 0.65332 104.14716 8630 ft 296 kts 350°
2026-05-07 11:18 0.67348 104.14335 8258 ft 295 kts 350°
2026-05-07 11:18 0.69363 104.13955 7889 ft 293 kts 350°
2026-05-07 11:18 0.71373 104.13593 7520 ft 291 kts 351°
2026-05-07 11:18 0.73367 104.13251 7229 ft 286 kts 351°
2026-05-07 11:19 0.75295 104.12921 7131 ft 274 kts 351°
2026-05-07 11:19 0.77164 104.12596 7049 ft 262 kts 350°
2026-05-07 11:19 0.78878 104.12112 6900 ft 255 kts 336°
2026-05-07 11:19 0.80438 104.11210 6600 ft 255 kts 326°
2026-05-07 11:20 0.81863 104.10168 6317 ft 253 kts 324°
2026-05-07 11:20 0.83278 104.09137 6037 ft 252 kts 325°
2026-05-07 11:20 0.84726 104.08132 5761 ft 250 kts 326°
2026-05-07 11:20 0.86152 104.07170 5501 ft 246 kts 327°
2026-05-07 11:21 0.87574 104.06218 5223 ft 243 kts 327°
2026-05-07 11:21 0.88977 104.05279 4957 ft 240 kts 327°
2026-05-07 11:21 0.90367 104.04345 4691 ft 237 kts 327°
2026-05-07 11:21 0.91718 104.03437 4450 ft 231 kts 327°
2026-05-07 11:22 0.93035 104.02552 4189 ft 226 kts 327°
2026-05-07 11:22 0.94341 104.01673 3940 ft 221 kts 327°
2026-05-07 11:22 0.95598 104.00832 3704 ft 216 kts 328°
2026-05-07 11:22 0.96921 104.00178 3533 ft 206 kts 347°
2026-05-07 11:23 0.98315 104.00201 3265 ft 199 kts 22°
2026-05-07 11:23 0.99491 104.00909 2953 ft 196 kts 42°
2026-05-07 11:23 1.00525 104.01782 2685 ft 194 kts 42°
2026-05-07 11:23 1.01557 104.02664 2431 ft 193 kts 43°
2026-05-07 11:24 1.02533 104.03514 2209 ft 179 kts 44°
2026-05-07 11:24 1.03438 104.04308 1987 ft 164 kts 44°
2026-05-07 11:24 1.04280 104.05044 1721 ft 156 kts 44°
2026-05-07 11:24 1.05088 104.05753 1548 ft 155 kts 44°
2026-05-07 11:25 1.05914 104.06478 1349 ft 156 kts 44°
2026-05-07 11:25 1.06735 104.07194 1144 ft 157 kts 43°
2026-05-07 11:25 1.07552 104.07912 946 ft 157 kts 44°
2026-05-07 11:25 1.08373 104.08629 747 ft 156 kts 43°
2026-05-07 11:26 1.09197 104.09353 532 ft 157 kts 43°
2026-05-07 11:26 1.10027 104.10063 346 ft 156 kts 42°
2026-05-07 11:26 1.10852 104.10783 152 ft 157 kts 43°
2026-05-07 11:26 1.11591 104.11434 126 ft 112 kts 41°
2026-05-07 11:27 1.12012 104.11805 126 ft 62 kts 43°
2026-05-07 11:27 1.12284 104.12046 126 ft 36 kts 42°
2026-05-07 11:27 1.12482 104.12191 126 ft 28 kts 25°
2026-05-07 11:27 1.12619 104.12232 126 ft 4 kts 12°
2026-05-07 11:28 1.12640 104.12237 126 ft 2 kts 12°
2026-05-07 11:28 1.12653 104.12240 126 ft 1 kts 12°
2026-05-07 11:28 1.12659 104.12241 126 ft 0 kts 12°
2026-05-07 11:28 1.12692 104.12244 126 ft 8 kts 346°
2026-05-07 11:29 1.12705 104.12200 126 ft 8 kts 231°
2026-05-07 11:29 1.12653 104.12151 126 ft 14 kts 220°
2026-05-07 11:29 1.12560 104.12071 126 ft 18 kts 224°
2026-05-07 11:29 1.12467 104.11988 126 ft 15 kts 218°
2026-05-07 11:30 1.12388 104.11919 126 ft 14 kts 221°
2026-05-07 11:30 1.12321 104.11855 126 ft 5 kts 249°
2026-05-07 11:30 1.12335 104.11816 126 ft 5 kts 306°
2026-05-07 11:30 1.12338 104.11812 126 ft 1 kts 312°
2026-05-07 11:31 1.12364 104.11807 126 ft 5 kts 13°
2026-05-07 11:31 1.12399 104.11823 126 ft 5 kts 27°
2026-05-07 11:31 1.12430 104.11816 126 ft 5 kts 320°
2026-05-07 11:31 1.12454 104.11793 126 ft 4 kts 312°
2026-05-07 11:32 1.12460 104.11785 126 ft 0 kts 312°